TimeEDT,TemperatureF,Dew PointF,Humidity,Sea Level PressureIn,VisibilityMPH,Wind Direction,Wind SpeedMPH,Gust SpeedMPH,PrecipitationIn,Events,Conditions,WindDirDegrees,DateUTC
12:15 AM,57.9,57.9,100,30.07,7.0,NW,3.5,-,N/A,,Overcast,320,2012-10-10 04:15:00
12:35 AM,57.7,57.7,100,30.07,5.0,Calm,Calm,-,N/A,,Overcast,0,2012-10-10 04:35:00
12:55 AM,57.7,57.7,100,30.06,4.0,Calm,Calm,-,N/A,,Overcast,0,2012-10-10 04:55:00
1:15 AM,57.7,57.7,100,30.06,4.0,NNW,3.5,-,N/A,,Overcast,330,2012-10-10 05:15:00
1:35 AM,57.7,57.7,100,30.06,4.0,Calm,Calm,-,N/A,,Overcast,0,2012-10-10 05:35:00
1:55 AM,58.1,58.1,100,30.06,5.0,Calm,Calm,-,N/A,,Overcast,0,2012-10-10 05:55:00
2:15 AM,58.1,58.1,100,30.05,4.0,Calm,Calm,-,N/A,,Overcast,0,2012-10-10 06:15:00
2:35 AM,58.1,58.1,100,30.05,3.0,Calm,Calm,-,N/A,,Overcast,0,2012-10-10 06:35:00
2:55 AM,57.9,57.9,100,30.04,3.0,Calm,Calm,-,N/A,,Overcast,0,2012-10-10 06:55:00
3:15 AM,57.9,57.9,100,30.03,4.0,WNW,3.5,-,N/A,,Overcast,300,2012-10-10 07:15:00
3:35 AM,57.7,57.7,100,30.03,5.0,Calm,Calm,-,N/A,,Overcast,0,2012-10-10 07:35:00
3:55 AM,57.9,57.9,100,30.03,4.0,NW,3.5,-,N/A,,Overcast,310,2012-10-10 07:55:00
4:15 AM,58.1,58.1,100,30.03,4.0,WNW,3.5,-,N/A,,Overcast,290,2012-10-10 08:15:00
4:35 AM,58.1,58.1,100,30.02,4.0,Calm,Calm,-,N/A,,Overcast,0,2012-10-10 08:35:00
4:55 AM,57.7,57.7,100,30.02,3.0,Calm,Calm,-,N/A,,Overcast,0,2012-10-10 08:55:00
5:15 AM,57.7,57.7,100,30.03,4.0,Calm,Calm,-,N/A,,Overcast,0,2012-10-10 09:15:00
5:35 AM,57.9,57.9,100,30.03,4.0,WNW,3.5,-,N/A,,Overcast,300,2012-10-10 09:35:00
5:55 AM,57.7,57.7,100,30.02,4.0,Calm,Calm,-,N/A,,Overcast,0,2012-10-10 09:55:00
6:15 AM,57.9,57.9,100,30.03,3.0,Calm,Calm,-,N/A,,Overcast,0,2012-10-10 10:15:00
6:35 AM,57.9,57.9,100,30.02,3.0,Calm,Calm,-,N/A,,Overcast,0,2012-10-10 10:35:00
6:55 AM,58.1,58.1,100,30.02,3.0,Calm,Calm,-,N/A,,Overcast,0,2012-10-10 10:55:00
7:15 AM,58.1,58.1,100,30.03,5.0,West,3.5,-,N/A,,Overcast,260,2012-10-10 11:15:00
7:35 AM,58.1,58.1,100,30.04,5.0,West,5.8,-,N/A,,Overcast,260,2012-10-10 11:35:00
7:55 AM,57.7,57.7,100,30.04,5.0,WSW,6.9,-,N/A,,Overcast,250,2012-10-10 11:55:00
8:15 AM,57.7,57.7,100,30.04,5.0,WSW,4.6,-,N/A,,Overcast,240,2012-10-10 12:15:00
8:35 AM,58.1,58.1,100,30.04,10.0,WSW,4.6,-,N/A,,Overcast,250,2012-10-10 12:35:00
8:55 AM,58.3,58.3,100,30.05,10.0,WSW,5.8,-,N/A,,Overcast,250,2012-10-10 12:55:00
9:15 AM,59.0,59.0,100,30.05,10.0,WSW,5.8,-,N/A,,Mostly Cloudy,250,2012-10-10 13:15:00
9:35 AM,60.6,60.3,99,30.04,10.0,WSW,8.1,-,N/A,,Mostly Cloudy,240,2012-10-10 13:35:00
9:55 AM,61.9,59.2,91,30.04,10.0,West,8.1,-,N/A,,Mostly Cloudy,260,2012-10-10 13:55:00
10:15 AM,61.9,58.5,89,30.03,10.0,WSW,6.9,-,N/A,,Mostly Cloudy,250,2012-10-10 14:15:00
10:35 AM,63.0,58.8,86,30.03,10.0,WSW,8.1,-,N/A,,Mostly Cloudy,240,2012-10-10 14:35:00
11:15 AM,62.6,56.3,80,30.02,10.0,WSW,9.2,-,N/A,,Scattered Clouds,240,2012-10-10 15:15:00
11:35 AM,64.2,56.5,76,30.02,10.0,WSW,10.4,-,N/A,,Scattered Clouds,240,2012-10-10 15:35:00
11:55 AM,65.1,56.8,75,30.01,10.0,West,8.1,-,N/A,,Mostly Cloudy,260,2012-10-10 15:55:00
12:15 PM,64.4,56.5,75,30.00,10.0,West,10.4,-,N/A,,Mostly Cloudy,260,2012-10-10 16:15:00
12:35 PM,65.8,56.5,72,30.00,10.0,WSW,11.5,-,N/A,,Scattered Clouds,240,2012-10-10 16:35:00
1:15 PM,67.6,56.5,67,29.98,10.0,SW,10.4,-,N/A,,Mostly Cloudy,220,2012-10-10 17:15:00
1:35 PM,67.1,56.5,69,29.97,10.0,West,11.5,18.4,N/A,,Unknown,260,2012-10-10 17:35:00
1:55 PM,68.4,55.9,64,29.96,10.0,SW,6.9,-,N/A,,Scattered Clouds,230,2012-10-10 17:55:00
2:15 PM,69.4,56.7,64,29.95,10.0,West,10.4,-,N/A,,Clear,260,2012-10-10 18:15:00
2:35 PM,69.1,55.9,63,29.94,10.0,WSW,6.9,-,N/A,,Clear,240,2012-10-10 18:35:00
2:55 PM,69.8,55.2,60,29.93,10.0,West,8.1,-,N/A,,Clear,260,2012-10-10 18:55:00
3:15 PM,69.6,55.6,61,29.93,10.0,WSW,10.4,-,N/A,,Scattered Clouds,240,2012-10-10 19:15:00
3:35 PM,70.0,56.3,62,29.93,10.0,WSW,6.9,-,N/A,,Scattered Clouds,240,2012-10-10 19:35:00
3:55 PM,69.6,55.9,62,29.92,10.0,WSW,8.1,-,N/A,,Scattered Clouds,240,2012-10-10 19:55:00
4:15 PM,70.2,55.4,59,29.92,10.0,West,11.5,16.1,N/A,,Scattered Clouds,260,2012-10-10 20:15:00
4:35 PM,70.2,54.3,57,29.93,10.0,WSW,11.5,-,N/A,,Mostly Cloudy,250,2012-10-10 20:35:00
4:55 PM,69.8,54.0,57,29.93,10.0,West,8.1,-,N/A,,Scattered Clouds,270,2012-10-10 20:55:00
5:15 PM,69.8,54.3,58,29.93,10.0,WSW,10.4,-,N/A,,Scattered Clouds,250,2012-10-10 21:15:00
5:35 PM,68.9,54.1,59,29.93,10.0,WSW,6.9,-,N/A,,Clear,250,2012-10-10 21:35:00
5:55 PM,68.0,54.3,62,29.94,10.0,SW,5.8,-,N/A,,Clear,230,2012-10-10 21:55:00
6:35 PM,65.3,55.8,71,29.94,10.0,SW,4.6,-,N/A,,Clear,220,2012-10-10 22:35:00
7:15 PM,58.1,56.7,95,29.96,10.0,Calm,Calm,-,N/A,,Clear,0,2012-10-10 23:15:00
7:35 PM,57.0,56.7,99,29.96,10.0,ENE,3.5,-,N/A,,Clear,70,2012-10-10 23:35:00
7:55 PM,57.4,57.2,99,29.97,10.0,Calm,Calm,-,N/A,,Clear,0,2012-10-10 23:55:00
8:15 PM,54.7,54.7,100,29.97,10.0,Calm,Calm,-,N/A,,Clear,0,2012-10-11 00:15:00
8:35 PM,55.6,55.6,100,29.98,10.0,Calm,Calm,-,N/A,,Clear,0,2012-10-11 00:35:00
9:15 PM,55.8,55.8,100,29.99,10.0,Calm,Calm,-,N/A,,Clear,0,2012-10-11 01:15:00
9:55 PM,55.6,55.6,100,30.02,10.0,WSW,3.5,-,N/A,,Clear,250,2012-10-11 01:55:00
10:15 PM,57.7,55.4,92,30.03,10.0,West,4.6,-,N/A,,Clear,260,2012-10-11 02:15:00
10:35 PM,57.2,55.2,93,30.03,10.0,West,5.8,-,N/A,,Clear,260,2012-10-11 02:35:00
11:15 PM,58.5,55.4,90,30.07,10.0,NW,4.6,-,N/A,,Scattered Clouds,320,2012-10-11 03:15:00
11:35 PM,58.3,54.5,87,30.08,10.0,NNW,5.8,-,N/A,,Scattered Clouds,340,2012-10-11 03:35:00
11:55 PM,58.3,51.8,79,30.08,10.0,NNW,4.6,-,N/A,,Scattered Clouds,340,2012-10-11 03:55:00